SURCAL 150B

导读 | 星芒AI

SURCAL 150B 是一颗小型地球观测卫星,主要用于高分辨率成像和环境监测。该卫星由 SURCAL 公司研发,具备先进的遥感技术和数据传输能力,适用于农业、城市规划和灾害管理等领域。其150公斤级设计使其能够以较低成本发射并执行多种任务。SURCAL 150B 运行在太阳同步轨道,确保全球范围内的稳定观测能力,提升了遥感数据的获取效率和应用价值。

基本信息
目录编号:
2909
目录名称:
SURCAL 150B
国际标识:
1967-053J
轨道中心:
EARTH
卫星名称:
SURCAL 150B
卫星全名:
--
卫星状态:
在轨 (已飞行21325 天)
发射日期:
1967-05-31 UTC
国别 :
美国 (US)
星等 :
--
轨道信息
数据来源 国际轨道数据
星历时间: 2025-10-17T20:45:28+0800
17小时前
查看轨道信息
半长轴: 6572.214km
偏心率: 0.0010634
轨道倾角: 69.882°
近地点辐角 253.526°
升交点赤经 134.172°
平近点角 106.479°
近地点: 187.09km
远地点: 201.068km
周期: 88.375分钟
每日圈数: 16.294282
详细信息
使用方式:
暂无
2D轨道图
3D轨道图
轨道高度分析图
轨道倾角分析图
轨道综合分析图
查看轨道综合分析图